LOCATION_NAME,SAMPLE COLLECTION TIME,DOSE EQUIVALENT RATE (nSv/h),GAMMA COUNT RATE R02 (CPM),GAMMA COUNT RATE R03 (CPM),GAMMA COUNT RATE R04 (CPM),GAMMA COUNT RATE R05 (CPM),GAMMA COUNT RATE R06 (CPM),GAMMA COUNT RATE R07 (CPM),GAMMA COUNT RATE R08 (CPM),GAMMA COUNT RATE R09 (CPM),STATUS
VT: BURLINGTON,01/01/2017 00:25:00,49.00,1353.00,840.00,253.00,136.00,91.00,119.00,65.00,20.00,APPROVED
VT: BURLINGTON,01/01/2017 01:25:00,49.00,1362.00,854.00,255.00,136.00,93.00,119.00,67.00,22.00,APPROVED
VT: BURLINGTON,01/01/2017 02:26:00,47.00,1355.00,853.00,259.00,137.00,92.00,115.00,69.00,21.00,APPROVED
VT: BURLINGTON,01/01/2017 03:26:00,48.00,1359.00,843.00,257.00,135.00,90.00,119.00,68.00,21.00,APPROVED
VT: BURLINGTON,01/01/2017 04:26:00,49.00,1353.00,838.00,253.00,136.00,95.00,120.00,67.00,21.00,APPROVED
VT: BURLINGTON,01/01/2017 05:26:00,49.00,1360.00,851.00,253.00,137.00,90.00,117.00,68.00,21.00,APPROVED
VT: BURLINGTON,01/01/2017 06:27:00,50.00,1366.00,848.00,258.00,135.00,89.00,119.00,68.00,20.00,APPROVED
VT: BURLINGTON,01/01/2017 07:27:00,49.00,1367.00,850.00,261.00,136.00,93.00,117.00,66.00,21.00,APPROVED
VT: BURLINGTON,01/01/2017 08:27:00,49.00,1371.00,857.00,257.00,138.00,93.00,117.00,69.00,21.00,APPROVED
VT: BURLINGTON,01/01/2017 09:27:00,51.00,1384.00,870.00,265.00,140.00,95.00,122.00,70.00,21.00,APPROVED
VT: BURLINGTON,01/01/2017 10:27:00,53.00,1448.00,941.00,278.00,154.00,97.00,128.00,75.00,23.00,APPROVED
VT: BURLINGTON,01/01/2017 11:28:00,54.00,1403.00,887.00,270.00,150.00,99.00,125.00,72.00,23.00,APPROVED
VT: BURLINGTON,01/01/2017 12:28:00,50.00,1379.00,862.00,263.00,136.00,91.00,119.00,69.00,21.00,APPROVED
VT: BURLINGTON,01/01/2017 13:28:00,50.00,1370.00,850.00,258.00,137.00,91.00,119.00,70.00,22.00,APPROVED
VT: BURLINGTON,01/01/2017 14:28:00,47.00,1350.00,837.00,254.00,132.00,90.00,115.00,67.00,20.00,APPROVED
VT: BURLINGTON,01/01/2017 15:29:00,50.00,1344.00,833.00,255.00,134.00,93.00,116.00,67.00,20.00,APPROVED
VT: BURLINGTON,01/01/2017 16:29:00,50.00,1341.00,846.00,252.00,135.00,89.00,118.00,70.00,21.00,APPROVED
VT: BURLINGTON,01/01/2017 17:29:00,48.00,1333.00,841.00,254.00,135.00,90.00,115.00,69.00,20.00,APPROVED
VT: BURLINGTON,01/01/2017 18:29:00,49.00,1329.00,844.00,253.00,135.00,92.00,116.00,69.00,20.00,APPROVED
VT: BURLINGTON,01/01/2017 19:29:00,49.00,1333.00,844.00,255.00,139.00,91.00,117.00,70.00,21.00,APPROVED
VT: BURLINGTON,01/01/2017 20:30:00,48.00,1337.00,831.00,253.00,136.00,90.00,117.00,68.00,21.00,APPROVED
VT: BURLINGTON,01/01/2017 21:30:00,47.00,1331.00,831.00,251.00,135.00,93.00,118.00,67.00,20.00,APPROVED
VT: BURLINGTON,01/01/2017 22:30:00,48.00,1318.00,831.00,253.00,136.00,91.00,116.00,69.00,20.00,APPROVED
VT: BURLINGTON,01/01/2017 23:30:00,46.00,1325.00,827.00,249.00,135.00,90.00,116.00,66.00,21.00,APPROVED
VT: BURLINGTON,01/02/2017 00:31:00,46.00,1330.00,820.00,251.00,133.00,89.00,113.00,64.00,20.00,APPROVED
VT: BURLINGTON,01/02/2017 01:31:00,46.00,1337.00,820.00,246.00,132.00,91.00,115.00,65.00,21.00,APPROVED
VT: BURLINGTON,01/02/2017 02:31:00,44.00,1336.00,817.00,249.00,130.00,90.00,115.00,65.00,20.00,APPROVED
VT: BURLINGTON,01/02/2017 03:31:00,48.00,1331.00,821.00,250.00,130.00,91.00,115.00,64.00,20.00,APPROVED
VT: BURLINGTON,01/02/2017 04:32:00,48.00,1333.00,829.00,254.00,131.00,90.00,116.00,67.00,20.00,APPROVED
VT: BURLINGTON,01/02/2017 05:32:00,46.00,1348.00,823.00,252.00,133.00,89.00,116.00,65.00,21.00,APPROVED
VT: BURLINGTON,01/02/2017 06:32:00,48.00,1345.00,834.00,254.00,131.00,91.00,116.00,64.00,20.00,APPROVED
VT: BURLINGTON,01/02/2017 07:32:00,47.00,1351.00,838.00,255.00,132.00,93.00,119.00,64.00,21.00,APPROVED
VT: BURLINGTON,01/02/2017 08:32:00,48.00,1362.00,832.00,258.00,133.00,90.00,119.00,61.00,19.00,APPROVED
VT: BURLINGTON,01/02/2017 09:33:00,48.00,1372.00,843.00,258.00,134.00,90.00,120.00,61.00,21.00,APPROVED
VT: BURLINGTON,01/02/2017 10:33:00,49.00,1368.00,843.00,258.00,135.00,93.00,120.00,62.00,21.00,APPROVED
VT: BURLINGTON,01/02/2017 11:33:00,46.00,1365.00,846.00,261.00,135.00,93.00,122.00,64.00,20.00,APPROVED
VT: BURLINGTON,01/02/2017 12:33:00,48.00,1363.00,856.00,260.00,134.00,93.00,122.00,63.00,20.00,APPROVED
VT: BURLINGTON,01/02/2017 13:34:00,48.00,1381.00,855.00,261.00,137.00,93.00,121.00,63.00,21.00,APPROVED
VT: BURLINGTON,01/02/2017 14:34:00,50.00,1368.00,858.00,262.00,138.00,93.00,122.00,66.00,21.00,APPROVED
VT: BURLINGTON,01/02/2017 15:34:00,49.00,1367.00,853.00,260.00,137.00,92.00,119.00,64.00,22.00,APPROVED
VT: BURLINGTON,01/02/2017 16:34:00,48.00,1361.00,853.00,259.00,140.00,90.00,120.00,68.00,21.00,APPROVED
VT: BURLINGTON,01/02/2017 17:34:00,49.00,1362.00,837.00,259.00,137.00,91.00,118.00,67.00,20.00,APPROVED
VT: BURLINGTON,01/02/2017 18:35:00,49.00,1345.00,849.00,254.00,140.00,90.00,118.00,68.00,21.00,APPROVED
VT: BURLINGTON,01/02/2017 19:35:00,49.00,1343.00,849.00,253.00,137.00,90.00,118.00,69.00,20.00,APPROVED
VT: BURLINGTON,01/02/2017 20:35:00,48.00,1345.00,839.00,255.00,139.00,90.00,116.00,72.00,21.00,APPROVED
VT: BURLINGTON,01/02/2017 21:35:00,45.00,1346.00,850.00,254.00,137.00,90.00,115.00,70.00,21.00,APPROVED
VT: BURLINGTON,01/02/2017 22:36:00,49.00,1346.00,848.00,252.00,137.00,91.00,116.00,71.00,20.00,APPROVED
VT: BURLINGTON,01/02/2017 23:36:00,48.00,1352.00,847.00,258.00,140.00,92.00,114.00,70.00,20.00,APPROVED
VT: BURLINGTON,01/03/2017 00:36:00,47.00,1360.00,857.00,257.00,141.00,92.00,117.00,70.00,21.00,APPROVED
VT: BURLINGTON,01/03/2017 01:36:00,48.00,1361.00,846.00,257.00,140.00,93.00,117.00,69.00,20.00,APPROVED
VT: BURLINGTON,01/03/2017 02:36:00,48.00,1364.00,859.00,259.00,137.00,92.00,119.00,68.00,20.00,APPROVED
VT: BURLINGTON,01/03/2017 03:37:00,48.00,1358.00,843.00,257.00,138.00,91.00,119.00,69.00,21.00,APPROVED
VT: BURLINGTON,01/03/2017 04:37:00,48.00,1365.00,847.00,256.00,136.00,91.00,117.00,67.00,20.00,APPROVED
VT: BURLINGTON,01/03/2017 05:37:00,47.00,1349.00,856.00,259.00,139.00,92.00,119.00,67.00,21.00,APPROVED
VT: BURLINGTON,01/03/2017 06:37:00,48.00,1355.00,853.00,256.00,137.00,92.00,117.00,68.00,21.00,APPROVED
VT: BURLINGTON,01/03/2017 07:38:00,47.00,1373.00,850.00,260.00,139.00,94.00,118.00,69.00,21.00,APPROVED
VT: BURLINGTON,01/03/2017 08:38:00,48.00,1365.00,855.00,259.00,140.00,90.00,120.00,67.00,21.00,APPROVED
VT: BURLINGTON,01/03/2017 09:38:00,49.00,1374.00,860.00,262.00,137.00,92.00,120.00,71.00,20.00,APPROVED
VT: BURLINGTON,01/03/2017 10:38:00,47.00,1389.00,881.00,263.00,144.00,92.00,121.00,72.00,21.00,APPROVED
VT: BURLINGTON,01/03/2017 11:38:00,51.00,1400.00,887.00,268.00,143.00,95.00,122.00,67.00,22.00,APPROVED
VT: BURLINGTON,01/03/2017 12:39:00,47.00,1372.00,861.00,262.00,144.00,91.00,119.00,71.00,21.00,APPROVED
VT: BURLINGTON,01/03/2017 13:39:00,48.00,1349.00,855.00,256.00,138.00,90.00,117.00,71.00,20.00,APPROVED
VT: BURLINGTON,01/03/2017 14:39:00,47.00,1352.00,849.00,254.00,137.00,89.00,117.00,68.00,21.00,APPROVED
VT: BURLINGTON,01/03/2017 15:39:00,47.00,1336.00,837.00,252.00,135.00,94.00,119.00,70.00,20.00,APPROVED
VT: BURLINGTON,01/03/2017 16:23:00,50.00,1334.00,834.00,255.00,141.00,91.00,116.00,69.00,21.00,APPROVED
VT: BURLINGTON,01/03/2017 17:52:00,48.00,1322.00,825.00,248.00,131.00,90.00,114.00,66.00,20.00,APPROVED
VT: BURLINGTON,01/03/2017 18:53:00,49.00,1330.00,832.00,250.00,134.00,90.00,116.00,70.00,21.00,APPROVED
VT: BURLINGTON,01/03/2017 19:53:00,48.00,1328.00,830.00,253.00,136.00,91.00,115.00,68.00,21.00,APPROVED
VT: BURLINGTON,01/03/2017 20:53:00,50.00,1334.00,834.00,251.00,134.00,90.00,115.00,70.00,20.00,APPROVED
VT: BURLINGTON,01/03/2017 21:53:00,49.00,1331.00,835.00,253.00,137.00,91.00,116.00,71.00,21.00,APPROVED
VT: BURLINGTON,01/03/2017 22:53:00,46.00,1349.00,840.00,253.00,137.00,92.00,117.00,71.00,20.00,APPROVED
VT: BURLINGTON,01/03/2017 23:54:00,50.00,1357.00,854.00,256.00,139.00,93.00,119.00,70.00,20.00,APPROVED
VT: BURLINGTON,01/04/2017 00:54:00,51.00,1401.00,887.00,264.00,145.00,96.00,123.00,72.00,23.00,APPROVED
VT: BURLINGTON,01/04/2017 01:54:00,51.00,1415.00,907.00,272.00,147.00,95.00,123.00,74.00,22.00,APPROVED
VT: BURLINGTON,01/04/2017 02:54:00,50.00,1419.00,902.00,275.00,150.00,99.00,126.00,73.00,22.00,APPROVED
VT: BURLINGTON,01/04/2017 03:55:00,51.00,1418.00,897.00,271.00,149.00,95.00,125.00,73.00,22.00,APPROVED
VT: BURLINGTON,01/04/2017 04:55:00,51.00,1416.00,894.00,266.00,146.00,94.00,122.00,76.00,22.00,APPROVED
VT: BURLINGTON,01/04/2017 05:55:00,55.00,1490.00,962.00,288.00,162.00,102.00,129.00,79.00,22.00,APPROVED
VT: BURLINGTON,01/04/2017 06:55:00,56.00,1523.00,1006.00,298.00,170.00,106.00,135.00,79.00,24.00,APPROVED
VT: BURLINGTON,01/04/2017 07:55:00,57.00,1546.00,1016.00,304.00,171.00,105.00,138.00,79.00,25.00,APPROVED
VT: BURLINGTON,01/04/2017 08:56:00,54.00,1535.00,1004.00,304.00,171.00,104.00,138.00,80.00,22.00,APPROVED
VT: BURLINGTON,01/04/2017 09:56:00,54.00,1435.00,919.00,277.00,151.00,98.00,130.00,74.00,22.00,APPROVED
VT: BURLINGTON,01/04/2017 10:56:00,53.00,1385.00,864.00,266.00,146.00,95.00,121.00,71.00,21.00,APPROVED
VT: BURLINGTON,01/04/2017 11:56:00,54.00,1381.00,864.00,264.00,140.00,93.00,124.00,70.00,21.00,APPROVED
VT: BURLINGTON,01/04/2017 12:57:00,52.00,1365.00,861.00,257.00,140.00,92.00,121.00,67.00,21.00,APPROVED
VT: BURLINGTON,01/04/2017 13:57:00,52.00,1352.00,851.00,253.00,137.00,93.00,119.00,70.00,21.00,APPROVED
VT: BURLINGTON,01/04/2017 14:57:00,51.00,1351.00,856.00,260.00,139.00,91.00,118.00,71.00,21.00,APPROVED
VT: BURLINGTON,01/04/2017 15:57:00,50.00,1353.00,844.00,259.00,139.00,88.00,116.00,70.00,21.00,APPROVED
VT: BURLINGTON,01/04/2017 16:57:00,50.00,1361.00,850.00,257.00,139.00,90.00,117.00,70.00,20.00,APPROVED
VT: BURLINGTON,01/05/2017 16:17:00,51.00,1341.00,841.00,250.00,132.00,89.00,122.00,61.00,19.00,APPROVED
VT: BURLINGTON,01/05/2017 17:17:00,50.00,1341.00,837.00,249.00,132.00,88.00,124.00,62.00,19.00,APPROVED
VT: BURLINGTON,01/05/2017 18:17:00,50.00,1346.00,846.00,255.00,131.00,90.00,122.00,59.00,20.00,APPROVED
VT: BURLINGTON,01/05/2017 19:17:00,49.00,1351.00,837.00,250.00,136.00,89.00,122.00,60.00,20.00,APPROVED
VT: BURLINGTON,01/05/2017 20:18:00,50.00,1359.00,847.00,254.00,132.00,88.00,123.00,60.00,20.00,APPROVED
VT: BURLINGTON,01/05/2017 21:18:00,50.00,1367.00,849.00,255.00,131.00,88.00,126.00,61.00,19.00,APPROVED
VT: BURLINGTON,01/05/2017 22:18:00,48.00,1367.00,851.00,254.00,133.00,91.00,125.00,61.00,19.00,APPROVED
VT: BURLINGTON,01/05/2017 23:18:00,50.00,1362.00,841.00,252.00,132.00,88.00,122.00,60.00,19.00,APPROVED
VT: BURLINGTON,01/06/2017 00:19:00,49.00,1356.00,846.00,254.00,130.00,90.00,122.00,58.00,19.00,APPROVED
VT: BURLINGTON,01/06/2017 01:19:00,48.00,1361.00,848.00,254.00,133.00,91.00,123.00,60.00,19.00,APPROVED
VT: BURLINGTON,01/06/2017 02:19:00,49.00,1369.00,851.00,257.00,133.00,89.00,125.00,59.00,20.00,APPROVED
VT: BURLINGTON,01/06/2017 03:19:00,49.00,1369.00,856.00,256.00,135.00,89.00,125.00,62.00,18.00,APPROVED
VT: BURLINGTON,01/06/2017 04:19:00,49.00,1379.00,860.00,257.00,135.00,92.00,126.00,63.00,20.00,APPROVED
VT: BURLINGTON,01/06/2017 05:20:00,47.00,1387.00,864.00,263.00,135.00,91.00,127.00,64.00,20.00,APPROVED
VT: BURLINGTON,01/06/2017 06:20:00,48.00,1394.00,867.00,263.00,136.00,92.00,125.00,61.00,20.00,APPROVED
VT: BURLINGTON,01/06/2017 07:20:00,48.00,1393.00,872.00,260.00,137.00,91.00,124.00,61.00,20.00,APPROVED
VT: BURLINGTON,01/06/2017 09:21:00,49.00,1384.00,859.00,258.00,135.00,89.00,125.00,61.00,19.00,APPROVED
VT: BURLINGTON,01/06/2017 10:21:00,50.00,1376.00,857.00,257.00,135.00,89.00,122.00,61.00,19.00,APPROVED
VT: BURLINGTON,01/06/2017 11:21:00,48.00,1377.00,853.00,258.00,134.00,92.00,127.00,62.00,18.00,APPROVED
VT: BURLINGTON,01/06/2017 12:21:00,49.00,1387.00,856.00,260.00,135.00,91.00,122.00,60.00,20.00,APPROVED
VT: BURLINGTON,01/06/2017 13:21:00,50.00,1359.00,851.00,253.00,133.00,91.00,124.00,59.00,20.00,APPROVED
VT: BURLINGTON,01/06/2017 14:22:00,51.00,1372.00,850.00,255.00,131.00,91.00,121.00,60.00,19.00,APPROVED
VT: BURLINGTON,01/06/2017 15:22:00,50.00,1354.00,842.00,256.00,133.00,90.00,119.00,62.00,20.00,APPROVED
VT: BURLINGTON,01/06/2017 16:22:00,47.00,1345.00,836.00,251.00,132.00,89.00,122.00,60.00,18.00,APPROVED
VT: BURLINGTON,01/06/2017 17:22:00,49.00,1354.00,836.00,249.00,131.00,89.00,120.00,61.00,20.00,APPROVED
VT: BURLINGTON,01/06/2017 18:23:00,48.00,1353.00,835.00,256.00,135.00,89.00,122.00,61.00,20.00,APPROVED
VT: BURLINGTON,01/06/2017 19:23:00,47.00,1349.00,839.00,252.00,131.00,89.00,120.00,62.00,20.00,APPROVED
VT: BURLINGTON,01/06/2017 20:23:00,48.00,1341.00,839.00,252.00,131.00,91.00,122.00,59.00,20.00,APPROVED
VT: BURLINGTON,01/06/2017 21:23:00,50.00,1350.00,835.00,253.00,133.00,87.00,122.00,61.00,19.00,APPROVED
VT: BURLINGTON,01/06/2017 22:23:00,47.00,1355.00,846.00,254.00,132.00,87.00,123.00,62.00,21.00,APPROVED
VT: BURLINGTON,01/06/2017 23:24:00,48.00,1354.00,847.00,257.00,135.00,90.00,122.00,60.00,19.00,APPROVED
VT: BURLINGTON,01/07/2017 00:24:00,46.00,1368.00,850.00,257.00,135.00,92.00,124.00,62.00,19.00,APPROVED
VT: BURLINGTON,01/07/2017 01:24:00,48.00,1356.00,848.00,256.00,134.00,87.00,121.00,61.00,20.00,APPROVED
VT: BURLINGTON,01/07/2017 02:24:00,47.00,1367.00,855.00,252.00,135.00,90.00,121.00,59.00,19.00,APPROVED
VT: BURLINGTON,01/07/2017 03:24:00,48.00,1371.00,851.00,256.00,131.00,91.00,125.00,61.00,20.00,APPROVED
VT: BURLINGTON,01/07/2017 04:25:00,48.00,1360.00,854.00,254.00,137.00,90.00,124.00,58.00,18.00,APPROVED
VT: BURLINGTON,01/07/2017 05:25:00,46.00,1372.00,848.00,254.00,131.00,89.00,121.00,60.00,20.00,APPROVED
VT: BURLINGTON,01/07/2017 06:25:00,47.00,1383.00,860.00,256.00,135.00,87.00,124.00,61.00,18.00,APPROVED
VT: BURLINGTON,01/07/2017 07:25:00,49.00,1390.00,862.00,263.00,136.00,91.00,125.00,60.00,20.00,APPROVED
VT: BURLINGTON,01/07/2017 08:26:00,49.00,1392.00,870.00,261.00,138.00,90.00,126.00,61.00,19.00,APPROVED
VT: BURLINGTON,01/07/2017 09:26:00,48.00,1397.00,871.00,263.00,136.00,91.00,125.00,58.00,19.00,APPROVED
VT: BURLINGTON,01/07/2017 10:26:00,47.00,1402.00,876.00,258.00,137.00,90.00,125.00,62.00,19.00,APPROVED
VT: BURLINGTON,01/07/2017 11:26:00,47.00,1405.00,873.00,264.00,139.00,91.00,127.00,60.00,19.00,APPROVED
VT: BURLINGTON,01/07/2017 12:26:00,48.00,1406.00,887.00,266.00,138.00,93.00,128.00,59.00,19.00,APPROVED
VT: BURLINGTON,01/07/2017 13:27:00,48.00,1414.00,887.00,264.00,140.00,93.00,127.00,60.00,20.00,APPROVED
VT: BURLINGTON,01/07/2017 14:27:00,49.00,1412.00,894.00,268.00,142.00,92.00,127.00,61.00,21.00,APPROVED
VT: BURLINGTON,01/07/2017 15:27:00,47.00,1409.00,890.00,265.00,142.00,93.00,127.00,64.00,20.00,APPROVED
VT: BURLINGTON,01/07/2017 16:27:00,47.00,1393.00,891.00,266.00,143.00,92.00,126.00,64.00,19.00,APPROVED
VT: BURLINGTON,01/07/2017 17:28:00,48.00,1406.00,879.00,264.00,140.00,91.00,127.00,65.00,20.00,APPROVED
VT: BURLINGTON,01/07/2017 18:28:00,46.00,1382.00,875.00,260.00,138.00,91.00,125.00,63.00,20.00,APPROVED
VT: BURLINGTON,01/07/2017 19:28:00,48.00,1368.00,859.00,259.00,138.00,90.00,124.00,64.00,20.00,APPROVED
VT: BURLINGTON,01/07/2017 20:28:00,48.00,1375.00,862.00,256.00,135.00,90.00,122.00,62.00,20.00,APPROVED
VT: BURLINGTON,01/07/2017 21:28:00,49.00,1371.00,849.00,261.00,136.00,89.00,125.00,61.00,19.00,APPROVED
VT: BURLINGTON,01/07/2017 22:29:00,45.00,1361.00,840.00,256.00,131.00,89.00,121.00,60.00,20.00,APPROVED
VT: BURLINGTON,01/07/2017 23:29:00,46.00,1368.00,846.00,255.00,130.00,88.00,122.00,59.00,19.00,APPROVED
VT: BURLINGTON,01/08/2017 00:29:00,48.00,1369.00,850.00,251.00,131.00,90.00,122.00,58.00,21.00,APPROVED
VT: BURLINGTON,01/08/2017 01:29:00,47.00,1369.00,846.00,252.00,131.00,89.00,124.00,55.00,19.00,APPROVED
VT: BURLINGTON,01/08/2017 02:30:00,46.00,1379.00,851.00,256.00,131.00,88.00,123.00,58.00,20.00,APPROVED
VT: BURLINGTON,01/08/2017 03:30:00,46.00,1372.00,849.00,253.00,132.00,90.00,127.00,57.00,19.00,APPROVED
VT: BURLINGTON,01/08/2017 04:30:00,47.00,1375.00,846.00,257.00,131.00,88.00,123.00,56.00,19.00,APPROVED
VT: BURLINGTON,01/08/2017 05:30:00,48.00,1375.00,839.00,255.00,129.00,89.00,122.00,53.00,20.00,APPROVED
VT: BURLINGTON,01/08/2017 06:30:00,47.00,1385.00,848.00,255.00,131.00,89.00,125.00,54.00,19.00,APPROVED
VT: BURLINGTON,01/08/2017 07:31:00,49.00,1394.00,856.00,254.00,131.00,91.00,124.00,54.00,20.00,APPROVED
VT: BURLINGTON,01/08/2017 08:31:00,48.00,1409.00,859.00,257.00,131.00,89.00,127.00,54.00,21.00,APPROVED
VT: BURLINGTON,01/08/2017 09:31:00,48.00,1406.00,853.00,256.00,130.00,91.00,128.00,52.00,20.00,APPROVED
VT: BURLINGTON,01/08/2017 10:31:00,48.00,1400.00,862.00,261.00,130.00,91.00,128.00,51.00,20.00,APPROVED
VT: BURLINGTON,01/08/2017 11:31:00,49.00,1402.00,861.00,255.00,133.00,90.00,130.00,51.00,20.00,APPROVED
VT: BURLINGTON,01/08/2017 12:32:00,47.00,1403.00,865.00,260.00,132.00,92.00,128.00,51.00,20.00,APPROVED
VT: BURLINGTON,01/08/2017 13:32:00,49.00,1422.00,874.00,264.00,133.00,92.00,132.00,53.00,20.00,APPROVED
VT: BURLINGTON,01/08/2017 14:32:00,48.00,1412.00,875.00,260.00,138.00,93.00,130.00,56.00,20.00,APPROVED
VT: BURLINGTON,01/08/2017 15:32:00,47.00,1402.00,874.00,262.00,138.00,92.00,130.00,59.00,19.00,APPROVED
VT: BURLINGTON,01/08/2017 16:33:00,48.00,1394.00,868.00,260.00,135.00,90.00,125.00,60.00,20.00,APPROVED
VT: BURLINGTON,01/08/2017 17:33:00,46.00,1389.00,873.00,262.00,136.00,90.00,128.00,60.00,20.00,APPROVED
VT: BURLINGTON,01/08/2017 18:33:00,48.00,1375.00,851.00,254.00,135.00,89.00,121.00,59.00,19.00,APPROVED
VT: BURLINGTON,01/08/2017 19:33:00,50.00,1385.00,860.00,263.00,136.00,90.00,125.00,60.00,19.00,APPROVED
VT: BURLINGTON,01/08/2017 20:33:00,48.00,1369.00,849.00,255.00,132.00,89.00,124.00,60.00,21.00,APPROVED
VT: BURLINGTON,01/08/2017 21:34:00,48.00,1358.00,845.00,257.00,133.00,87.00,122.00,58.00,20.00,APPROVED
VT: BURLINGTON,01/08/2017 22:34:00,46.00,1379.00,848.00,256.00,130.00,88.00,122.00,57.00,19.00,APPROVED
VT: BURLINGTON,01/08/2017 23:34:00,49.00,1376.00,847.00,257.00,131.00,88.00,121.00,56.00,19.00,APPROVED
VT: BURLINGTON,01/09/2017 00:34:00,48.00,1373.00,851.00,255.00,132.00,90.00,124.00,56.00,19.00,APPROVED
VT: BURLINGTON,01/09/2017 01:35:00,47.00,1403.00,863.00,259.00,130.00,88.00,127.00,57.00,20.00,APPROVED
VT: BURLINGTON,01/09/2017 02:35:00,47.00,1418.00,869.00,261.00,135.00,91.00,125.00,55.00,20.00,APPROVED
VT: BURLINGTON,01/09/2017 03:35:00,47.00,1407.00,865.00,260.00,132.00,89.00,127.00,54.00,20.00,APPROVED
VT: BURLINGTON,01/09/2017 04:35:00,46.00,1404.00,854.00,259.00,134.00,92.00,126.00,51.00,20.00,APPROVED
VT: BURLINGTON,01/09/2017 05:35:00,47.00,1409.00,856.00,264.00,135.00,91.00,128.00,52.00,19.00,APPROVED
VT: BURLINGTON,01/09/2017 06:36:00,45.00,1408.00,858.00,255.00,133.00,89.00,128.00,49.00,20.00,APPROVED
VT: BURLINGTON,01/09/2017 07:36:00,46.00,1414.00,865.00,261.00,132.00,91.00,126.00,50.00,19.00,APPROVED
VT: BURLINGTON,01/09/2017 08:36:00,44.00,1409.00,871.00,257.00,132.00,91.00,127.00,49.00,21.00,APPROVED
VT: BURLINGTON,01/09/2017 09:36:00,46.00,1407.00,861.00,258.00,133.00,93.00,129.00,49.00,21.00,APPROVED
VT: BURLINGTON,01/09/2017 10:37:00,48.00,1404.00,867.00,263.00,131.00,92.00,130.00,49.00,18.00,APPROVED
VT: BURLINGTON,01/09/2017 11:37:00,45.00,1402.00,854.00,257.00,135.00,92.00,128.00,49.00,19.00,APPROVED
VT: BURLINGTON,01/09/2017 12:37:00,47.00,1410.00,864.00,264.00,131.00,91.00,127.00,51.00,19.00,APPROVED
VT: BURLINGTON,01/09/2017 13:37:00,47.00,1399.00,864.00,261.00,135.00,89.00,130.00,50.00,20.00,APPROVED
VT: BURLINGTON,01/09/2017 14:37:00,46.00,1406.00,863.00,263.00,135.00,92.00,130.00,51.00,19.00,APPROVED
VT: BURLINGTON,01/09/2017 15:38:00,46.00,1402.00,861.00,259.00,132.00,92.00,127.00,52.00,20.00,APPROVED
VT: BURLINGTON,01/09/2017 16:38:00,47.00,1407.00,869.00,259.00,134.00,91.00,129.00,54.00,19.00,APPROVED
VT: BURLINGTON,01/09/2017 17:38:00,49.00,1393.00,864.00,262.00,134.00,90.00,129.00,55.00,20.00,APPROVED
VT: BURLINGTON,01/09/2017 18:38:00,46.00,1399.00,860.00,258.00,134.00,89.00,126.00,55.00,19.00,APPROVED
VT: BURLINGTON,01/09/2017 19:39:00,48.00,1395.00,860.00,255.00,132.00,90.00,125.00,55.00,19.00,APPROVED
VT: BURLINGTON,01/09/2017 20:39:00,45.00,1389.00,867.00,259.00,135.00,92.00,124.00,57.00,20.00,APPROVED
VT: BURLINGTON,01/09/2017 21:39:00,49.00,1398.00,857.00,260.00,135.00,90.00,127.00,56.00,20.00,APPROVED
VT: BURLINGTON,01/09/2017 22:39:00,49.00,1388.00,865.00,258.00,134.00,92.00,125.00,57.00,19.00,APPROVED
VT: BURLINGTON,01/09/2017 23:39:00,46.00,1396.00,869.00,262.00,137.00,91.00,127.00,57.00,20.00,APPROVED
VT: BURLINGTON,01/10/2017 00:40:00,49.00,1404.00,863.00,259.00,132.00,92.00,125.00,58.00,19.00,APPROVED
VT: BURLINGTON,01/10/2017 01:40:00,46.00,1410.00,875.00,260.00,137.00,91.00,126.00,57.00,20.00,APPROVED
VT: BURLINGTON,01/10/2017 02:40:00,47.00,1405.00,873.00,262.00,136.00,92.00,128.00,57.00,20.00,APPROVED
VT: BURLINGTON,01/10/2017 03:40:00,48.00,1406.00,880.00,262.00,139.00,92.00,127.00,57.00,20.00,APPROVED
VT: BURLINGTON,01/10/2017 04:41:00,48.00,1408.00,880.00,267.00,139.00,93.00,126.00,57.00,19.00,APPROVED
VT: BURLINGTON,01/10/2017 05:41:00,46.00,1406.00,884.00,263.00,136.00,94.00,126.00,59.00,20.00,APPROVED
VT: BURLINGTON,01/10/2017 06:41:00,46.00,1407.00,879.00,264.00,139.00,93.00,129.00,59.00,20.00,APPROVED
VT: BURLINGTON,01/10/2017 07:41:00,48.00,1409.00,881.00,265.00,139.00,93.00,125.00,57.00,20.00,APPROVED
VT: BURLINGTON,01/10/2017 08:41:00,47.00,1421.00,888.00,266.00,139.00,93.00,127.00,57.00,21.00,APPROVED
VT: BURLINGTON,01/10/2017 09:42:00,46.00,1421.00,891.00,267.00,141.00,94.00,129.00,60.00,20.00,APPROVED
VT: BURLINGTON,01/10/2017 10:42:00,48.00,1426.00,882.00,267.00,140.00,94.00,128.00,61.00,21.00,APPROVED
VT: BURLINGTON,01/10/2017 11:42:00,49.00,1426.00,901.00,267.00,141.00,94.00,128.00,58.00,21.00,APPROVED
VT: BURLINGTON,01/10/2017 12:42:00,48.00,1417.00,893.00,265.00,140.00,95.00,128.00,61.00,19.00,APPROVED
VT: BURLINGTON,01/10/2017 13:43:00,47.00,1409.00,883.00,268.00,142.00,94.00,130.00,61.00,21.00,APPROVED
VT: BURLINGTON,01/10/2017 14:43:00,46.00,1407.00,892.00,270.00,139.00,93.00,128.00,60.00,20.00,APPROVED
VT: BURLINGTON,01/10/2017 15:43:00,47.00,1408.00,895.00,265.00,142.00,92.00,126.00,61.00,20.00,APPROVED
VT: BURLINGTON,01/10/2017 16:43:00,47.00,1411.00,894.00,270.00,140.00,93.00,132.00,63.00,20.00,APPROVED
VT: BURLINGTON,01/10/2017 17:43:00,47.00,1405.00,896.00,270.00,145.00,94.00,128.00,64.00,21.00,APPROVED
VT: BURLINGTON,01/10/2017 18:44:00,50.00,1413.00,894.00,267.00,143.00,94.00,130.00,63.00,20.00,APPROVED
VT: BURLINGTON,01/10/2017 19:52:00,48.00,1390.00,861.00,258.00,136.00,90.00,124.00,59.00,20.00,APPROVED
VT: BURLINGTON,01/10/2017 20:53:00,48.00,1408.00,879.00,258.00,136.00,91.00,127.00,61.00,20.00,APPROVED
VT: BURLINGTON,01/10/2017 21:53:00,48.00,1426.00,884.00,262.00,141.00,93.00,126.00,59.00,20.00,APPROVED
VT: BURLINGTON,01/10/2017 22:53:00,50.00,1423.00,900.00,271.00,142.00,97.00,129.00,61.00,20.00,APPROVED
VT: BURLINGTON,01/10/2017 23:53:00,47.00,1423.00,888.00,267.00,140.00,92.00,127.00,61.00,19.00,APPROVED
VT: BURLINGTON,01/11/2017 00:53:00,50.00,1432.00,909.00,276.00,146.00,97.00,134.00,61.00,22.00,APPROVED
VT: BURLINGTON,01/11/2017 01:54:00,50.00,1482.00,946.00,287.00,153.00,98.00,137.00,65.00,21.00,APPROVED
VT: BURLINGTON,01/11/2017 02:54:00,48.00,1419.00,893.00,269.00,141.00,95.00,133.00,62.00,20.00,APPROVED
VT: BURLINGTON,01/11/2017 03:54:00,49.00,1419.00,891.00,268.00,142.00,92.00,129.00,62.00,20.00,APPROVED
VT: BURLINGTON,01/11/2017 04:54:00,52.00,1419.00,893.00,274.00,143.00,92.00,132.00,65.00,21.00,APPROVED
VT: BURLINGTON,01/11/2017 05:55:00,54.00,1472.00,936.00,286.00,153.00,96.00,138.00,63.00,21.00,APPROVED
VT: BURLINGTON,01/11/2017 06:55:00,52.00,1460.00,927.00,284.00,151.00,97.00,137.00,60.00,22.00,APPROVED
VT: BURLINGTON,01/11/2017 07:55:00,58.00,1567.00,1027.00,309.00,163.00,104.00,149.00,69.00,22.00,APPROVED
VT: BURLINGTON,01/11/2017 08:55:00,65.00,1670.00,1120.00,337.00,185.00,113.00,162.00,74.00,24.00,APPROVED
VT: BURLINGTON,01/11/2017 09:55:00,56.00,1504.00,972.00,295.00,158.00,100.00,144.00,67.00,21.00,APPROVED
VT: BURLINGTON,01/11/2017 10:56:00,52.00,1421.00,900.00,273.00,144.00,95.00,131.00,62.00,20.00,APPROVED